FW8688 Weather Reports


Display with metric or nautical units.
time (UTC)temp
F
wind
direction
speed
MPH
gust
MPH
rain 1hr
in
rain 24hr
in
rain mn
in
humidity
%
barometer
mb
20260503034804 64 319 5.0 10.0 0.00 0.00 0.00 27 1012.7
20260503033804 64 345 5.0 9.0 0.00 0.00 0.00 27 1012.6
20260503033305 64 343 4.0 8.0 0.00 0.00 0.00 26 1012.5
20260503031304 65 349 5.0 9.0 0.00 0.00 0.00 26 1012.5
20260503030805 65 342 5.0 8.0 0.00 0.00 0.00 26 1012.4
20260503030305 65 352 6.0 9.0 0.00 0.00 0.00 26 1012.4
20260503025305 66 350 6.0 9.0 0.00 0.00 0.00 25 1012.2
20260503024805 66 347 6.0 9.0 0.00 0.00 0.00 25 1012.2
20260503024304 66 346 6.0 9.0 0.00 0.00 0.00 24 1012.3
20260503023804 67 357 6.0 7.0 0.00 0.00 0.00 24 1012.3
20260503023304 67 338 3.0 5.0 0.00 0.00 0.00 24 1012.4
20260503022805 68 345 3.0 6.0 0.00 0.00 0.00 24 1012.4
20260503021804 68 319 5.0 9.0 0.00 0.00 0.00 23 1012.4
20260503021304 68 312 5.0 10.0 0.00 0.00 0.00 22 1012.4
20260503020305 69 348 4.0 8.0 0.00 0.00 0.00 22 1012.3
20260503015805 70 323 4.0 10.0 0.00 0.00 0.00 22 1012.3
20260503015305 70 306 5.0 7.0 0.00 0.00 0.00 20 1012.3
20260503014804 71 321 5.0 8.0 0.00 0.00 0.00 19 1012.4
20260503014304 71 346 3.0 3.0 0.00 0.00 0.00 18 1012.2
20260503013804 71 302 0.0 3.0 0.00 0.00 0.00 18 1012.2
20260503013304 71 319 1.0 2.0 0.00 0.00 0.00 17 1012.2
20260503012804 71 226 1.0 3.0 0.00 0.00 0.00 16 1012.2
20260503012306 71 195 0.0 1.0 0.00 0.00 0.00 16 1012.1
20260503011805 71 201 1.0 3.0 0.00 0.00 0.00 17 1012.1
20260503011305 71 192 3.0 5.0 0.00 0.00 0.00 16 1012.2
20260503005804 71 180 5.0 7.0 0.00 0.00 0.00 15 1012.1
20260503005305 72 190 5.0 7.0 0.00 0.00 0.00 13 1012.1
20260503004805 72 166 5.0 9.0 0.00 0.00 0.00 14 1012.3
20260503004304 73 167 5.0 9.0 0.00 0.00 0.00 14 1012.3
20260503003804 73 147 6.0 9.0 0.00 0.00 0.00 14 1012.3
20260503003305 73 162 6.0 9.0 0.00 0.00 0.00 14 1012.3
20260503002804 73 149 5.0 7.0 0.00 0.00 0.00 14 1012.2
20260503002305 73 169 4.0 7.0 0.00 0.00 0.00 14 1012.3
20260503001804 73 118 2.0 7.0 0.00 0.00 0.00 14 1012.3
20260503000804 73 134 2.0 6.0 0.00 0.00 0.00 14 1012.3
20260503000304 73 98 5.0 12.0 0.00 0.00 0.00 13 1012.5
20260502235805 74 113 6.0 8.0 0.00 0.00 0.00 13 1012.5
20260502235305 74 154 5.0 10.0 0.00 0.00 0.00 14 1012.5
20260502234804 74 130 5.0 9.0 0.00 0.00 0.00 15 1012.5
20260502234305 74 117 5.0 9.0 0.00 0.00 0.00 14 1012.6
20260502233805 74 96 5.0 8.0 0.00 0.00 0.00 15 1012.8
20260502232805 74 168 3.0 6.0 0.00 0.00 0.00 15 1012.8
20260502232305 74 98 2.0 8.0 0.00 0.00 0.00 13 1012.8
20260502231804 73 44 2.0 9.0 0.00 0.00 0.00 14 1012.9
20260502231304 74 73 8.0 10.0 0.00 0.00 0.00 13 1013.0
20260502230304 75 156 1.0 3.0 0.00 0.00 0.00 13 1013.3
20260502225804 73 110 2.0 8.0 0.00 0.00 0.00 14 1013.3
20260502225305 73 114 6.0 10.0 0.00 0.00 0.00 14 1013.3
20260502224804 73 83 3.0 10.0 0.00 0.00 0.00 14 1013.3
20260502224305 73 117 5.0 10.0 0.00 0.00 0.00 15 1013.4
20260502223804 74 79 3.0 8.0 0.00 0.00 0.00 15 1013.4
20260502223305 73 67 2.0 7.0 0.00 0.00 0.00 14 1013.9
20260502222805 73 90 4.0 10.0 0.00 0.00 0.00 16 1013.9
20260502222305 74 107 4.0 8.0 0.00 0.00 0.00 15 1013.9
20260502221804 74 177 4.0 7.0 0.00 0.00 0.00 16 1013.9
20260502221304 73 172 2.0 5.0 0.00 0.00 0.00 15 1013.9
20260502220804 74 176 4.0 7.0 0.00 0.00 0.00 15 1014.3
20260502220304 73 135 3.0 9.0 0.00 0.00 0.00 17 1014.3
20260502215805 72 129 5.0 8.0 0.00 0.00 0.00 16 1014.4
20260502215305 72 180 6.0 9.0 0.00 0.00 0.00 15 1014.4
20260502214804 72 164 5.0 8.0 0.00 0.00 0.00 17 1015.0
20260502214304 71 110 4.0 8.0 0.00 0.00 0.00 15 1015.0
20260502213304 72 88 7.0 12.0 0.00 0.00 0.00 15 1015.0
20260502212804 72 123 5.0 9.0 0.00 0.00 0.00 15 1015.0
20260502212305 72 165 4.0 7.0 0.00 0.00 0.00 15 1015.0
20260502211804 72 147 3.0 6.0 0.00 0.00 0.00 14 1015.0
20260502211304 73 165 5.0 9.0 0.00 0.00 0.00 15 1015.2
20260502210805 73 166 4.0 6.0 0.00 0.00 0.00 15 1015.4
20260502210304 73 154 3.0 6.0 0.00 0.00 0.00 14 1015.5
20260502205804 73 109 3.0 7.0 0.00 0.00 0.00 14 1015.5
20260502205305 73 149 4.0 8.0 0.00 0.00 0.00 14 1015.7
20260502204804 72 158 1.0 5.0 0.00 0.00 0.00 14 1015.7
20260502204304 72 126 4.0 7.0 0.00 0.00 0.00 15 1015.7
20260502203804 72 165 3.0 8.0 0.00 0.00 0.00 14 1016.0
20260502203304 72 85 4.0 7.0 0.00 0.00 0.00 15 1016.0
20260502202305 72 127 3.0 7.0 0.00 0.00 0.00 14 1016.5
20260502201805 72 165 5.0 8.0 0.00 0.00 0.00 14 1016.5
20260502201304 71 102 1.0 6.0 0.00 0.00 0.00 15 1016.5
20260502200304 71 308 1.0 6.0 0.00 0.00 0.00 14 1016.5
20260502195805 71 155 5.0 9.0 0.00 0.00 0.00 14 1016.5
20260502195305 70 237 4.0 10.0 0.00 0.00 0.00 16 1016.4
20260502194804 71 180 5.0 10.0 0.00 0.00 0.00 18 1016.4
20260502194305 70 110 2.0 7.0 0.00 0.00 0.00 16 1016.5
20260502193305 71 116 4.0 9.0 0.00 0.00 0.00 17 1016.5
20260502192804 71 108 2.0 5.0 0.00 0.00 0.00 16 1016.7
20260502192305 70 214 3.0 7.0 0.00 0.00 0.00 15 1016.7
20260502191804 70 171 2.0 7.0 0.00 0.00 0.00 19 1016.8
20260502191305 70 180 2.0 5.0 0.00 0.00 0.00 18 1017.2
20260502190304 69 184 5.0 8.0 0.00 0.00 0.00 19 1017.2
20260502185804 69 186 3.0 8.0 0.00 0.00 0.00 19 1017.2
20260502185305 69 183 3.0 6.0 0.00 0.00 0.00 19 1017.2
20260502184305 68 203 1.0 3.0 0.00 0.00 0.00 21 1017.5
20260502183304 67 207 2.0 7.0 0.00 0.00 0.00 22 1017.6
20260502182305 67 183 4.0 7.0 0.00 0.00 0.00 22 1017.6
20260502181804 66 156 3.0 7.0 0.00 0.00 0.00 23 1017.8
20260502181304 66 182 3.0 6.0 0.00 0.00 0.00 25 1017.8
20260502180804 66 171 5.0 7.0 0.00 0.00 0.00 28 1017.9
20260502180304 65 166 4.0 6.0 0.00 0.00 0.00 27 1018.0
20260502170305 62 137 3.0 8.0 0.00 0.00 0.00 32 1018.6
20260502164304 60 148 2.0 6.0 0.00 0.00 0.00 35 1018.6
20260502163804 59 141 3.0 6.0 0.00 0.00 0.00 35 1018.6
20260502163304 59 167 5.0 7.0 0.00 0.00 0.00 37 1018.8
20260502162805 59 154 3.0 7.0 0.00 0.00 0.00 39 1018.8
20260502162305 58 134 3.0 6.0 0.00 0.00 0.00 39 1018.5
20260502161804 58 182 5.0 7.0 0.00 0.00 0.00 38 1018.4
20260502161304 58 140 3.0 8.0 0.00 0.00 0.00 42 1018.4
20260502160804 58 171 5.0 8.0 0.00 0.00 0.00 42 1018.6
20260502152305 55 161 3.0 6.0 0.00 0.00 0.00 48 1018.6
20260502151305 54 129 3.0 7.0 0.00 0.00 0.00 48 1018.6
20260502150804 54 215 3.0 5.0 0.00 0.00 0.00 49 1018.6
20260502130304 42 238 0.0 2.0 0.00 0.00 0.00 62 1017.9
20260502123804 42 92 0.0 1.0 0.00 0.00 0.00 64 1017.9
20260502123304 42 92 0.0 0.0 0.00 0.00 0.00 63 1017.9
20260502122804 42 92 0.0 0.0 0.00 0.00 0.00 63 1017.9
20260502122306 42 92 0.0 0.0 0.00 0.00 0.00 63 1017.9
20260502121804 42 92 0.0 0.0 0.00 0.00 0.00 64 1017.8
20260502120304 42 92 0.0 0.0 0.00 0.00 0.00 62 1017.9
20260502115804 42 92 0.0 0.0 0.00 0.00 0.00 61 1017.8
20260502115306 42 92 0.0 1.0 0.00 0.00 0.00 60 1017.8
20260502114804 42 92 0.0 0.0 0.00 0.00 0.00 60 1017.8
20260502114304 42 92 0.0 2.0 0.00 0.00 0.00 60 1017.7
20260502113804 43 92 1.0 3.0 0.00 0.00 0.00 59 1017.7
20260502113304 43 92 0.0 0.0 0.00 0.00 0.00 58 1017.7
20260502112804 43 92 0.0 0.0 0.00 0.00 0.00 58 1017.7
20260502111804 44 92 0.0 0.0 0.00 0.00 0.00 57 1017.9
20260502111304 44 92 0.0 0.0 0.00 0.00 0.00 56 1017.9
20260502110304 44 92 0.0 0.0 0.00 0.00 0.00 55 1017.9
20260502105804 44 92 0.0 0.0 0.00 0.00 0.00 55 1017.9
20260502105306 45 92 0.0 0.0 0.00 0.00 0.00 53 1017.9
20260502104804 45 92 0.0 0.0 0.00 0.00 0.00 53 1017.7
20260502103804 45 92 0.0 0.0 0.00 0.00 0.00 51 1017.7
20260502103304 45 92 0.0 1.0 0.00 0.00 0.00 52 1017.7
20260502102804 45 92 2.0 3.0 0.00 0.00 0.00 52 1017.7
20260502102306 45 92 2.0 5.0 0.00 0.00 0.00 54 1017.7
20260502101803 45 113 1.0 3.0 0.00 0.00 0.00 53 1017.7
20260502101304 45 148 0.0 0.0 0.00 0.00 0.00 54 1017.7
20260502100804 45 148 0.0 0.0 0.00 0.00 0.00 54 1017.6
20260502100304 45 148 0.0 0.0 0.00 0.00 0.00 54 1017.6
20260502091304 47 331 0.0 0.0 0.00 0.00 0.00 50 1017.5
20260502090804 48 331 0.0 0.0 0.00 0.00 0.00 50 1017.5
20260502090304 48 355 0.0 0.0 0.00 0.00 0.00 48 1017.5
20260502071303 53 69 2.0 3.0 0.00 0.00 0.00 38 1017.3
20260502070804 53 32 0.0 2.0 0.00 0.00 0.00 38 1017.4
20260502070304 53 32 1.0 2.0 0.00 0.00 0.00 39 1017.4
20260502065804 53 32 0.0 0.0 0.00 0.00 0.00 40 1017.4
20260502065306 53 32 0.0 0.0 0.00 0.00 0.00 39 1017.4
20260502064804 53 32 0.0 0.0 0.00 0.00 0.00 39 1017.4
20260502064304 54 32 1.0 2.0 0.00 0.00 0.00 37 1017.4
20260502063804 54 340 1.0 2.0 0.00 0.00 0.00 38 1017.2
20260502063304 54 340 1.0 2.0 0.00 0.00 0.00 37 1017.2
20260502062804 54 325 2.0 3.0 0.00 0.00 0.00 37 1017.1
20260502062306 54 325 0.0 0.0 0.00 0.00 0.00 37 1017.1
20260502061804 55 317 0.0 2.0 0.00 0.00 0.00 36 1017.1
20260502061303 55 318 2.0 3.0 0.00 0.00 0.00 35 1017.1
20260502060804 55 306 3.0 3.0 0.00 0.00 0.00 36 1017.1
20260502060304 55 147 2.0 3.0 0.00 0.00 0.00 35 1017.0
20260502055306 55 344 0.0 1.0 0.00 0.00 0.00 35 1016.9
20260502054804 55 344 2.0 3.0 0.00 0.00 0.00 35 1016.8
20260502054304 55 59 2.0 5.0 0.00 0.00 0.00 36 1016.8
20260502053804 55 69 3.0 5.0 0.00 0.00 0.00 37 1016.8
20260502053304 55 351 4.0 7.0 0.00 0.00 0.00 37 1016.6
20260502052804 56 68 3.0 8.0 0.00 0.00 0.00 35 1016.6
20260502052306 56 26 5.0 8.0 0.00 0.00 0.00 33 1016.6
20260502051804 57 335 3.0 9.0 0.00 0.00 0.00 33 1016.4
20260502051304 57 341 5.0 9.0 0.00 0.00 0.00 32 1016.4
20260502050804 57 355 5.0 10.0 0.00 0.00 0.00 32 1016.3
20260502050303 57 356 6.0 9.0 0.00 0.00 0.00 32 1016.3
20260502045803 57 348 6.0 10.0 0.00 0.00 0.00 32 1016.3
20260502045306 57 338 6.0 10.0 0.00 0.00 0.00 32 1016.3
20260502044805 57 349 5.0 9.0 0.00 0.00 0.00 32 1016.3
20260502044305 57 352 8.0 12.0 0.00 0.00 0.00 31 1016.1
20260502043805 58 336 7.0 12.0 0.00 0.00 0.00 31 1016.1
20260502043306 58 2 6.0 12.0 0.00 0.00 0.00 31 1016.1
20260502042306 58 356 8.0 13.0 0.00 0.00 0.00 30 1016.0
20260502041805 58 346 10.0 15.0 0.00 0.00 0.00 30 1016.0
20260502041306 58 5 7.0 14.0 0.00 0.00 0.00 31 1016.0
20260502040306 58 340 7.0 12.0 0.00 0.00 0.00 31 1015.8
20260502035805 58 345 7.0 12.0 0.00 0.00 0.00 30 1015.8
20260502035306 58 330 7.0 12.0 0.00 0.00 0.00 30 1015.8